TimeCST,TemperatureF,Dew PointF,Humidity,Sea Level PressureIn,VisibilityMPH,Wind Direction,Wind SpeedMPH,Gust SpeedMPH,PrecipitationIn,Events,Conditions,WindDirDegrees,DateUTC
12:53 AM,32.0,21.0,64,30.01,10.0,NE,3.5,-,N/A,,Clear,50,2013-02-25 06:53:00
1:53 AM,32.0,21.0,64,30.00,10.0,ENE,3.5,-,N/A,,Clear,60,2013-02-25 07:53:00
2:53 AM,32.0,21.0,64,29.99,10.0,NE,3.5,-,N/A,,Clear,40,2013-02-25 08:53:00
3:53 AM,33.1,21.0,61,29.99,10.0,NE,5.8,-,N/A,,Clear,40,2013-02-25 09:53:00
4:53 AM,30.9,21.9,69,30.01,10.0,ENE,4.6,-,N/A,,Clear,60,2013-02-25 10:53:00
5:53 AM,32.0,21.0,64,30.01,10.0,NE,4.6,-,N/A,,Clear,50,2013-02-25 11:53:00
6:53 AM,32.0,21.0,64,30.03,10.0,East,3.5,-,N/A,,Clear,90,2013-02-25 12:53:00
7:53 AM,36.0,21.0,55,30.03,10.0,East,4.6,-,N/A,,Clear,80,2013-02-25 13:53:00
8:53 AM,41.0,21.9,47,30.03,10.0,SE,8.1,-,N/A,,Clear,130,2013-02-25 14:53:00
9:53 AM,43.0,21.0,42,30.01,10.0,East,8.1,-,N/A,,Clear,90,2013-02-25 15:53:00
10:53 AM,48.9,23.0,36,29.99,10.0,ESE,9.2,-,N/A,,Clear,110,2013-02-25 16:53:00
11:53 AM,54.0,25.0,33,29.95,10.0,ESE,8.1,-,N/A,,Clear,110,2013-02-25 17:53:00
12:53 PM,55.0,26.1,33,29.94,10.0,ESE,9.2,-,N/A,,Clear,120,2013-02-25 18:53:00
1:53 PM,55.9,28.0,34,29.91,10.0,SE,8.1,-,N/A,,Clear,140,2013-02-25 19:53:00
2:53 PM,55.9,28.9,36,29.89,10.0,SE,10.4,17.3,N/A,,Clear,130,2013-02-25 20:53:00
3:53 PM,53.1,30.0,41,29.87,10.0,Variable,5.8,-,N/A,,Overcast,0,2013-02-25 21:53:00
4:53 PM,52.0,30.0,43,29.83,10.0,ESE,10.4,-,N/A,,Scattered Clouds,120,2013-02-25 22:53:00
5:53 PM,50.0,28.0,43,29.83,10.0,SE,9.2,18.4,N/A,,Clear,130,2013-02-25 23:53:00
6:53 PM,48.9,28.9,46,29.83,10.0,ESE,4.6,-,N/A,,Partly Cloudy,120,2013-02-26 00:53:00
7:53 PM,50.0,28.9,44,29.83,10.0,ESE,5.8,-,N/A,,Overcast,110,2013-02-26 01:53:00
8:53 PM,51.1,35.1,54,29.78,10.0,SE,12.7,20.7,N/A,,Overcast,140,2013-02-26 02:53:00
9:08 PM,51.8,37.4,58,29.77,10.0,SE,13.8,21.9,N/A,,Overcast,140,2013-02-26 03:08:00
9:38 PM,51.8,39.2,62,29.76,10.0,SE,13.8,26.5,N/A,,Overcast,140,2013-02-26 03:38:00
9:53 PM,51.1,39.9,66,29.77,10.0,SE,10.4,28.8,N/A,,Overcast,140,2013-02-26 03:53:00
10:09 PM,51.8,39.2,62,29.76,10.0,SSE,12.7,26.5,N/A,,Overcast,150,2013-02-26 04:09:00
10:53 PM,50.0,42.1,74,29.73,10.0,SSE,10.4,19.6,N/A,,Overcast,160,2013-02-26 04:53:00
11:53 PM,50.0,42.1,74,29.69,10.0,SSE,10.4,25.3,N/A,,Overcast,160,2013-02-26 05:53:00